This is the latest recevied weather packets stored in our database for station/object SQ9MHX-13. If no packets are shown the sender has not sent any weather packets the latest 10 day(s).
| Time | Temp. | Humidity | Pressure | Rain* | Wind** | Luminosity | Snow |
|---|---|---|---|---|---|---|---|
| 1777739027 | 18.89° C | 39% | 963.9 hPa | - | 0 m/s | - | - |
| 1777738429 | 18.89° C | 37% | 963.7 hPa | - | 0 m/s | - | - |
| 1777738130 | 18.89° C | 37% | 963.3 hPa | - | 0 m/s | - | - |
| 1777737831 | 20° C | 34% | 963.6 hPa | - | 0 m/s | - | - |
| 1777737532 | 18.89° C | 37% | 963.5 hPa | - | 0 m/s | - | - |
| 1777737233 | 18.89° C | 38% | 963.5 hPa | - | 0 m/s | - | - |
| 1777736934 | 20° C | 37% | 963.1 hPa | - | 0 m/s | - | - |
| 1777736336 | 20° C | 37% | 963.1 hPa | - | 0 m/s | - | - |
| 1777736037 | 20° C | 37% | 962.8 hPa | - | 0 m/s | - | - |
| 1777735439 | 20° C | 35% | 962.3 hPa | - | 0 m/s | - | - |
| 1777735140 | 21.11° C | 36% | 962.1 hPa | - | 0 m/s | - | - |
| 1777734841 | 21.11° C | 34% | 962.3 hPa | - | 0 m/s | - | - |
| 1777734542 | 18.89° C | 34% | 962.5 hPa | - | 0 m/s | - | - |
| 1777734243 | 20° C | 35% | 962.1 hPa | - | 0 m/s | - | - |
| 1777733944 | 21.11° C | 34% | 961.9 hPa | - | 0 m/s | - | - |
| 1777733346 | 20° C | 37% | 962.6 hPa | - | 0 m/s | - | - |
| 1777733047 | 20° C | 36% | 962.2 hPa | - | 0 m/s | - | - |
| 1777732748 | 20° C | 37% | 961 hPa | - | 0 m/s | - | - |
| 1777732449 | 21.11° C | 33% | 961 hPa | - | 0 m/s | - | - |
| 1777732150 | 22.22° C | 33% | 961.6 hPa | - | 0 m/s | - | - |
| 1777731851 | 18.89° C | 35% | 962.2 hPa | - | 0 m/s | - | - |
| 1777731552 | 20° C | 37% | 962.3 hPa | - | 0 m/s | - | - |
| 1777731253 | 20° C | 35% | 962.3 hPa | - | 0 m/s | - | - |
| 1777730954 | 21.11° C | 37% | 962 hPa | - | 0 m/s | - | - |
| 1777730655 | 21.11° C | 36% | 961.9 hPa | - | 0 m/s | - | - |
* Rain since midnight (hover to see other rain measurements)
** Current wind speed in m/s (hover to see current wind gust speed)